TimeEDT,TemperatureF,Dew PointF,Humidity,Sea Level PressureIn,VisibilityMPH,Wind Direction,Wind SpeedMPH,Gust SpeedMPH,PrecipitationIn,Events,Conditions,WindDirDegrees,DateUTC
12:40 AM,69.8,68.0,94,29.81,10.0,WSW,4.6,-,N/A,,Overcast,240,2014-08-12 04:40:00
12:52 AM,69.1,68.0,96,29.78,10.0,SW,4.6,-,N/A,,Overcast,220,2014-08-12 04:52:00
1:02 AM,68.0,68.0,100,29.80,10.0,SW,4.6,-,N/A,,Mostly Cloudy,230,2014-08-12 05:02:00
1:10 AM,68.0,68.0,100,29.80,10.0,SSW,4.6,-,N/A,,Scattered Clouds,210,2014-08-12 05:10:00
1:45 AM,68.0,68.0,100,29.80,8.0,SW,5.8,-,N/A,,Mostly Cloudy,230,2014-08-12 05:45:00
1:52 AM,68.0,68.0,100,29.78,8.0,WSW,6.9,-,N/A,,Mostly Cloudy,240,2014-08-12 05:52:00
2:39 AM,66.2,66.2,100,29.80,8.0,SSW,5.8,-,N/A,,Scattered Clouds,210,2014-08-12 06:39:00
2:52 AM,66.9,66.9,100,29.77,7.0,SSW,5.8,-,N/A,,Partly Cloudy,210,2014-08-12 06:52:00
3:10 AM,66.2,66.2,100,29.79,6.0,SSW,5.8,-,N/A,,Mostly Cloudy,210,2014-08-12 07:10:00
3:49 AM,66.2,66.2,100,29.78,5.0,SW,5.8,-,N/A,,Mostly Cloudy,220,2014-08-12 07:49:00
3:52 AM,66.9,66.9,100,29.76,5.0,SW,5.8,-,N/A,,Mostly Cloudy,220,2014-08-12 07:52:00
4:01 AM,66.2,66.2,100,29.78,5.0,SW,5.8,-,N/A,,Scattered Clouds,220,2014-08-12 08:01:00
4:52 AM,66.2,66.2,100,29.77,5.0,SSW,5.8,-,N/A,,Partly Cloudy,200,2014-08-12 08:52:00
5:52 AM,66.0,66.0,100,29.76,4.0,SSW,4.6,-,N/A,,Mostly Cloudy,200,2014-08-12 09:52:00
6:11 AM,66.2,66.2,100,29.78,5.0,SSW,5.8,-,N/A,,Overcast,210,2014-08-12 10:11:00
6:52 AM,66.9,66.9,100,29.76,4.0,SSW,5.8,-,N/A,,Mostly Cloudy,210,2014-08-12 10:52:00
7:52 AM,68.0,68.0,100,29.76,5.0,South,6.9,-,N/A,,Overcast,190,2014-08-12 11:52:00
8:29 AM,69.8,68.0,94,29.79,5.0,SSW,8.1,-,N/A,,Mostly Cloudy,200,2014-08-12 12:29:00
8:38 AM,69.8,68.0,94,29.79,5.0,SSW,9.2,-,N/A,,Mostly Cloudy,200,2014-08-12 12:38:00
8:52 AM,69.1,68.0,96,29.76,5.0,South,9.2,-,N/A,,Overcast,190,2014-08-12 12:52:00
9:45 AM,71.6,68.0,88,29.78,8.0,SSW,11.5,-,N/A,,Overcast,200,2014-08-12 13:45:00
9:52 AM,72.0,66.9,84,29.75,8.0,SSW,13.8,-,N/A,,Mostly Cloudy,200,2014-08-12 13:52:00
10:43 AM,75.2,66.2,73,29.77,10.0,South,13.8,-,N/A,,Scattered Clouds,190,2014-08-12 14:43:00
10:52 AM,75.0,68.0,79,29.73,10.0,South,13.8,-,N/A,,Mostly Cloudy,190,2014-08-12 14:52:00
11:14 AM,73.4,66.2,78,29.77,10.0,SSW,13.8,25.3,N/A,,Mostly Cloudy,210,2014-08-12 15:14:00
11:26 AM,68.0,64.4,88,29.78,2.5,WSW,10.4,21.9,0.04,Rain-Thunderstorm,Thunderstorms and Rain,250,2014-08-12 15:26:00
11:32 AM,64.4,62.6,94,29.78,1.2,WSW,10.4,21.9,0.10,Rain-Thunderstorm,Thunderstorms and Rain,240,2014-08-12 15:32:00
11:36 AM,64.4,62.6,94,29.79,0.8,WSW,12.7,20.7,0.17,Rain-Thunderstorm,Thunderstorms and Rain,240,2014-08-12 15:36:00
11:50 AM,64.4,64.4,100,29.78,2.0,SSW,5.8,-,0.49,Rain-Thunderstorm,Thunderstorms and Rain,210,2014-08-12 15:50:00
11:52 AM,66.0,64.9,96,29.76,4.0,SW,6.9,-,0.50,Rain,Light Rain,220,2014-08-12 15:52:00
1:52 PM,75.9,63.0,64,29.73,10.0,SW,12.7,20.7,N/A,,Partly Cloudy,230,2014-08-12 17:52:00
2:52 PM,75.0,62.1,64,29.73,10.0,WSW,16.1,23.0,N/A,,Mostly Cloudy,240,2014-08-12 18:52:00
3:52 PM,75.0,62.1,64,29.74,10.0,West,13.8,25.3,N/A,,Mostly Cloudy,260,2014-08-12 19:52:00
4:28 PM,71.6,62.6,73,29.77,10.0,West,17.3,25.3,N/A,,Overcast,260,2014-08-12 20:28:00
4:52 PM,71.1,62.1,73,29.75,10.0,West,13.8,21.9,N/A,,Mostly Cloudy,260,2014-08-12 20:52:00
5:52 PM,71.1,61.0,70,29.77,10.0,WSW,12.7,23.0,N/A,,Mostly Cloudy,240,2014-08-12 21:52:00
6:52 PM,71.1,62.1,73,29.77,10.0,WSW,6.9,-,N/A,,Mostly Cloudy,250,2014-08-12 22:52:00
7:19 PM,68.0,60.8,78,29.81,10.0,West,10.4,21.9,N/A,,Overcast,260,2014-08-12 23:19:00
7:52 PM,64.9,64.0,97,29.79,10.0,WSW,6.9,-,0.03,,Overcast,250,2014-08-12 23:52:00
8:52 PM,64.9,63.0,93,29.81,10.0,WSW,8.1,-,0.00,,Mostly Cloudy,250,2014-08-13 00:52:00
9:52 PM,64.0,62.1,93,29.83,10.0,WSW,4.6,-,N/A,,Overcast,250,2014-08-13 01:52:00
10:52 PM,63.0,61.0,93,29.84,10.0,West,6.9,-,N/A,,Overcast,260,2014-08-13 02:52:00
11:17 PM,62.6,60.8,94,29.86,10.0,West,6.9,-,N/A,,Overcast,270,2014-08-13 03:17:00
11:40 PM,62.6,60.8,94,29.87,10.0,West,8.1,-,N/A,,Overcast,270,2014-08-13 03:40:00
11:52 PM,62.1,60.1,93,29.86,10.0,West,10.4,16.1,N/A,,Overcast,270,2014-08-13 03:52:00